Time,TemperatureF,DewpointF,PressureIn,WindDirection,WindDirectionDegrees,WindSpeedMPH,WindSpeedGustMPH,Humidity,HourlyPrecipIn,Conditions,Clouds,dailyrainin,SoftwareType,DateUTC
2013-03-31 00:02:00,53.0,43.0,29.81,SSW,200,9.0,9.0,70,0.00,,,0.00,,2013-03-31 00:02:00,
2013-03-31 00:12:00,53.0,43.0,29.81,SSW,200,9.0,9.0,70,0.00,,,0.00,,2013-03-31 00:12:00,
2013-03-31 00:22:00,52.0,43.0,29.80,South,182,2.0,8.0,71,0.00,,,0.00,,2013-03-31 00:22:00,
2013-03-31 00:32:00,52.0,43.0,29.80,SSW,200,0.0,7.0,72,0.00,,,0.00,,2013-03-31 00:32:00,
2013-03-31 00:42:00,52.0,43.0,29.80,SSW,200,0.0,7.0,72,0.00,,,0.00,,2013-03-31 00:42:00,
2013-03-31 00:53:00,52.0,44.0,29.81,SW,219,5.0,8.0,73,0.00,,,0.00,,2013-03-31 00:53:00,
2013-03-31 01:02:00,52.0,44.0,29.80,SSW,212,5.0,6.0,74,0.00,,,0.00,,2013-03-31 01:02:00,
2013-03-31 01:12:00,52.0,44.0,29.80,SSW,212,5.0,6.0,74,0.00,,,0.00,,2013-03-31 01:12:00,
2013-03-31 01:22:00,51.0,43.0,29.80,SW,219,6.0,7.0,75,0.00,,,0.00,,2013-03-31 01:22:00,
2013-03-31 01:32:00,51.0,44.0,29.80,SSW,202,6.0,8.0,76,0.00,,,0.00,,2013-03-31 01:32:00,
2013-03-31 01:42:00,51.0,44.0,29.80,SSW,202,6.0,8.0,76,0.00,,,0.00,,2013-03-31 01:42:00,
2013-03-31 01:53:00,50.0,43.0,29.80,SW,222,4.0,8.0,76,0.00,,,0.00,,2013-03-31 01:53:00,
2013-03-31 02:02:00,50.0,42.0,29.80,SW,217,4.0,9.0,75,0.00,,,0.00,,2013-03-31 02:02:00,
2013-03-31 02:12:00,50.0,42.0,29.80,SW,217,4.0,9.0,75,0.00,,,0.00,,2013-03-31 02:12:00,
2013-03-31 02:22:00,50.0,43.0,29.80,SSW,194,5.0,9.0,76,0.00,,,0.00,,2013-03-31 02:22:00,
2013-03-31 02:32:00,50.0,43.0,29.80,SW,231,8.0,9.0,76,0.00,,,0.00,,2013-03-31 02:32:00,
2013-03-31 02:42:00,50.0,43.0,29.80,SW,231,8.0,9.0,76,0.00,,,0.00,,2013-03-31 02:42:00,
2013-03-31 02:52:00,50.0,43.0,29.80,SW,231,8.0,9.0,76,0.00,,,0.00,,2013-03-31 02:52:00,
2013-03-31 03:02:00,50.0,43.0,29.80,SW,232,8.0,13.0,76,0.00,,,0.00,,2013-03-31 03:02:00,
2013-03-31 03:12:00,50.0,43.0,29.80,SW,232,8.0,13.0,76,0.00,,,0.00,,2013-03-31 03:12:00,
2013-03-31 03:22:00,50.0,43.0,29.80,SW,217,7.0,14.0,76,0.00,,,0.00,,2013-03-31 03:22:00,
2013-03-31 03:33:00,49.0,43.0,29.80,SW,234,4.0,15.0,80,0.00,,,0.00,,2013-03-31 03:33:00,
2013-03-31 03:43:00,49.0,43.0,29.80,SW,234,4.0,15.0,80,0.00,,,0.00,,2013-03-31 03:43:00,
2013-03-31 03:54:00,49.0,43.0,29.80,SW,234,6.0,13.0,81,0.00,,,0.00,,2013-03-31 03:54:00,
2013-03-31 04:02:00,48.0,-99.9,29.80,SW,215,10.0,14.0,84,0.00,,,0.00,,2013-03-31 04:02:00,
2013-03-31 04:13:00,48.0,43.0,29.80,SW,215,10.0,14.0,84,0.00,,,0.00,,2013-03-31 04:13:00,
2013-03-31 04:23:00,48.0,44.0,29.79,SW,222,12.0,14.0,87,0.00,,,0.00,,2013-03-31 04:23:00,
2013-03-31 04:32:00,47.0,44.0,29.79,SW,223,6.0,12.0,88,0.00,,,0.00,,2013-03-31 04:32:00,
2013-03-31 04:42:00,47.0,44.0,29.79,SW,223,6.0,12.0,88,0.00,,,0.00,,2013-03-31 04:42:00,
2013-03-31 04:52:00,47.0,44.0,29.79,SW,225,5.0,7.0,89,0.00,,,0.00,,2013-03-31 04:52:00,
2013-03-31 05:02:00,47.0,45.0,29.78,SSW,213,5.0,8.0,92,0.00,,,0.00,,2013-03-31 05:02:00,
2013-03-31 05:12:00,47.0,45.0,29.78,SSW,213,5.0,8.0,92,0.00,,,0.00,,2013-03-31 05:12:00,
2013-03-31 05:22:00,46.0,44.0,29.78,SSW,212,1.0,5.0,93,0.00,,,0.00,,2013-03-31 05:22:00,
2013-03-31 05:32:00,46.0,44.0,29.77,SW,233,4.0,6.0,93,0.00,,,0.00,,2013-03-31 05:32:00,
2013-03-31 05:42:00,46.0,44.0,29.77,SW,233,4.0,6.0,93,0.00,,,0.00,,2013-03-31 05:42:00,
2013-03-31 05:53:00,46.0,44.0,29.77,WSW,250,2.0,6.0,94,0.00,,,0.00,,2013-03-31 05:53:00,
2013-03-31 06:02:00,46.0,44.0,29.77,WSW,246,3.0,6.0,94,0.00,,,0.00,,2013-03-31 06:02:00,
2013-03-31 06:12:00,46.0,44.0,29.77,WSW,246,3.0,6.0,94,0.00,,,0.00,,2013-03-31 06:12:00,
2013-03-31 06:22:00,46.0,44.0,29.77,WSW,250,0.0,5.0,94,0.00,,,0.00,,2013-03-31 06:22:00,
2013-03-31 06:32:00,46.0,44.0,29.76,WSW,250,0.0,4.0,94,0.00,,,0.00,,2013-03-31 06:32:00,
2013-03-31 06:42:00,46.0,44.0,29.76,WSW,250,0.0,4.0,94,0.00,,,0.00,,2013-03-31 06:42:00,
2013-03-31 06:52:00,46.0,44.0,29.76,WSW,250,2.0,4.0,94,0.00,,,0.00,,2013-03-31 06:52:00,
2013-03-31 07:02:00,46.0,45.0,29.76,WNW,287,0.0,4.0,95,0.00,,,0.00,,2013-03-31 07:02:00,
2013-03-31 07:12:00,46.0,45.0,29.76,WNW,287,0.0,4.0,95,0.00,,,0.00,,2013-03-31 07:12:00,
2013-03-31 07:22:00,45.0,44.0,29.75,WSW,238,0.0,3.0,95,0.00,,,0.00,,2013-03-31 07:22:00,
2013-03-31 07:32:00,45.0,44.0,29.76,West,270,2.0,5.0,95,0.00,,,0.00,,2013-03-31 07:32:00,
2013-03-31 07:42:00,45.0,44.0,29.76,West,270,2.0,5.0,95,0.00,,,0.00,,2013-03-31 07:42:00,
2013-03-31 07:53:00,45.0,44.0,29.75,West,275,0.0,5.0,95,0.00,,,0.00,,2013-03-31 07:53:00,
2013-03-31 08:02:00,45.0,44.0,29.76,West,260,6.0,7.0,95,0.00,,,0.00,,2013-03-31 08:02:00,
2013-03-31 08:12:00,45.0,44.0,29.76,West,260,6.0,7.0,95,0.00,,,0.00,,2013-03-31 08:12:00,
2013-03-31 08:22:00,45.0,43.0,29.75,NW,304,6.0,9.0,93,0.00,,,0.00,,2013-03-31 08:22:00,
2013-03-31 08:32:00,45.0,43.0,29.75,WNW,287,2.0,8.0,91,0.00,,,0.00,,2013-03-31 08:32:00,
2013-03-31 08:42:00,45.0,43.0,29.75,WNW,287,2.0,8.0,91,0.00,,,0.00,,2013-03-31 08:42:00,
2013-03-31 08:52:00,45.0,43.0,29.75,NW,311,0.0,7.0,91,0.00,,,0.00,,2013-03-31 08:52:00,
2013-03-31 09:02:00,44.0,42.0,29.75,West,265,1.0,4.0,91,0.00,,,0.00,,2013-03-31 09:02:00,
2013-03-31 09:12:00,44.0,42.0,29.75,West,265,1.0,4.0,91,0.00,,,0.00,,2013-03-31 09:12:00,
2013-03-31 09:22:00,44.0,42.0,29.75,West,260,4.0,5.0,91,0.00,,,0.00,,2013-03-31 09:22:00,
2013-03-31 09:33:00,44.0,42.0,29.75,WNW,284,1.0,5.0,91,0.00,,,0.00,,2013-03-31 09:33:00,
2013-03-31 09:42:00,44.0,42.0,29.75,WNW,284,1.0,5.0,91,0.00,,,0.00,,2013-03-31 09:42:00,
2013-03-31 09:53:00,43.0,41.0,29.74,WNW,296,0.0,3.0,91,0.00,,,0.00,,2013-03-31 09:53:00,
2013-03-31 10:03:00,42.0,40.0,29.74,WNW,296,0.0,2.0,92,0.00,,,0.00,,2013-03-31 10:03:00,
2013-03-31 10:13:00,42.0,40.0,29.74,WNW,296,0.0,2.0,92,0.00,,,0.00,,2013-03-31 10:13:00,
2013-03-31 10:23:00,41.0,39.0,29.74,WNW,296,0.0,0.0,92,0.00,,,0.00,,2013-03-31 10:23:00,
2013-03-31 10:32:00,41.0,39.0,29.74,WNW,296,2.0,4.0,92,0.00,,,0.00,,2013-03-31 10:32:00,
2013-03-31 10:42:00,41.0,39.0,29.74,WNW,296,2.0,4.0,92,0.00,,,0.00,,2013-03-31 10:42:00,
2013-03-31 10:53:00,41.0,39.0,29.74,WSW,246,0.0,5.0,93,0.00,,,0.00,,2013-03-31 10:53:00,
2013-03-31 11:02:00,40.0,38.0,29.74,West,267,4.0,5.0,94,0.00,,,0.00,,2013-03-31 11:02:00,
2013-03-31 11:12:00,40.0,38.0,29.74,West,267,4.0,5.0,94,0.00,,,0.00,,2013-03-31 11:12:00,
2013-03-31 11:23:00,40.0,38.0,29.74,WSW,250,0.0,5.0,94,0.00,,,0.00,,2013-03-31 11:23:00,
2013-03-31 11:32:00,40.0,38.0,29.74,NW,311,0.0,3.0,94,0.00,,,0.00,,2013-03-31 11:32:00,
2013-03-31 11:42:00,40.0,38.0,29.74,NW,311,0.0,3.0,94,0.00,,,0.00,,2013-03-31 11:42:00,
2013-03-31 11:52:00,40.0,39.0,29.74,WNW,291,1.0,3.0,95,0.00,,,0.00,,2013-03-31 11:52:00,
2013-03-31 12:02:00,41.0,40.0,29.74,West,274,1.0,8.0,95,0.00,,,0.00,,2013-03-31 12:02:00,
2013-03-31 12:12:00,41.0,40.0,29.74,West,274,1.0,8.0,95,0.00,,,0.00,,2013-03-31 12:12:00,
2013-03-31 12:22:00,41.0,40.0,29.73,West,278,1.0,4.0,95,0.00,,,0.00,,2013-03-31 12:22:00,
2013-03-31 12:33:00,41.0,40.0,29.74,West,278,0.0,2.0,95,0.00,,,0.00,,2013-03-31 12:33:00,
2013-03-31 12:42:00,41.0,40.0,29.74,West,278,0.0,2.0,95,0.00,,,0.00,,2013-03-31 12:42:00,
2013-03-31 12:53:00,41.0,40.0,29.74,West,278,0.0,1.0,95,0.00,,,0.00,,2013-03-31 12:53:00,
2013-03-31 13:02:00,41.0,40.0,29.74,WNW,288,3.0,6.0,96,0.00,,,0.00,,2013-03-31 13:02:00,
2013-03-31 13:12:00,41.0,40.0,29.74,WNW,288,3.0,6.0,96,0.00,,,0.00,,2013-03-31 13:12:00,
2013-03-31 13:22:00,42.0,41.0,29.73,WSW,238,2.0,7.0,95,0.00,,,0.00,,2013-03-31 13:22:00,
2013-03-31 13:32:00,42.0,41.0,29.74,SW,236,5.0,7.0,95,0.00,,,0.00,,2013-03-31 13:32:00,
2013-03-31 13:42:00,42.0,41.0,29.74,SW,236,5.0,7.0,95,0.00,,,0.00,,2013-03-31 13:42:00,
2013-03-31 13:53:00,42.0,40.0,29.74,West,262,5.0,9.0,94,0.00,,,0.00,,2013-03-31 13:53:00,
2013-03-31 14:02:00,42.0,40.0,29.74,West,260,5.0,10.0,94,0.00,,,0.00,,2013-03-31 14:02:00,
2013-03-31 14:12:00,42.0,40.0,29.74,West,260,5.0,10.0,94,0.00,,,0.00,,2013-03-31 14:12:00,
2013-03-31 14:22:00,42.0,40.0,29.73,West,261,4.0,11.0,93,0.00,,,0.00,,2013-03-31 14:22:00,
2013-03-31 14:32:00,43.0,40.0,29.73,WSW,250,6.0,10.0,90,0.00,,,0.00,,2013-03-31 14:32:00,
2013-03-31 14:42:00,43.0,40.0,29.73,WSW,250,6.0,10.0,90,0.00,,,0.00,,2013-03-31 14:42:00,
2013-03-31 14:52:00,43.0,40.0,29.73,West,273,5.0,10.0,90,0.00,,,0.00,,2013-03-31 14:52:00,
2013-03-31 15:03:00,45.0,41.0,29.72,SW,229,9.0,9.0,87,0.00,,,0.00,,2013-03-31 15:03:00,
2013-03-31 15:12:00,45.0,41.0,29.72,SW,229,9.0,9.0,87,0.00,,,0.00,,2013-03-31 15:12:00,
2013-03-31 15:22:00,46.0,41.0,29.72,SW,222,5.0,10.0,83,0.00,,,0.00,,2013-03-31 15:22:00,
2013-03-31 15:33:00,46.0,41.0,29.72,WNW,285,4.0,10.0,82,0.00,,,0.00,,2013-03-31 15:33:00,
2013-03-31 15:43:00,46.0,41.0,29.72,WNW,285,4.0,10.0,82,0.00,,,0.00,,2013-03-31 15:43:00,
2013-03-31 15:54:00,47.0,41.0,29.72,WSW,248,6.0,10.0,78,0.00,,,0.00,,2013-03-31 15:54:00,
2013-03-31 16:03:00,49.0,41.0,29.72,West,279,3.0,11.0,75,0.00,,,0.00,,2013-03-31 16:03:00,
2013-03-31 16:13:00,49.0,41.0,29.72,West,279,3.0,11.0,75,0.00,,,0.00,,2013-03-31 16:13:00,
2013-03-31 16:23:00,50.0,40.0,29.72,WSW,250,7.0,12.0,69,0.00,,,0.00,,2013-03-31 16:23:00,
2013-03-31 16:33:00,51.0,40.0,29.72,West,261,4.0,12.0,66,0.00,,,0.00,,2013-03-31 16:33:00,
2013-03-31 16:43:00,51.0,40.0,29.72,West,261,4.0,12.0,66,0.00,,,0.00,,2013-03-31 16:43:00,
2013-03-31 16:53:00,53.0,41.0,29.72,WNW,282,6.0,14.0,63,0.00,,,0.00,,2013-03-31 16:53:00,
2013-03-31 17:03:00,54.0,41.0,29.71,West,281,5.0,15.0,62,0.00,,,0.00,,2013-03-31 17:03:00,
2013-03-31 17:12:00,54.0,41.0,29.71,West,281,5.0,15.0,62,0.00,,,0.00,,2013-03-31 17:12:00,
2013-03-31 17:22:00,55.0,43.0,29.71,WNW,298,9.0,13.0,64,0.00,,,0.00,,2013-03-31 17:22:00,
2013-03-31 17:32:00,54.0,42.0,29.71,West,281,6.0,17.0,64,0.00,,,0.00,,2013-03-31 17:32:00,
2013-03-31 17:42:00,54.0,42.0,29.71,West,281,6.0,17.0,64,0.00,,,0.00,,2013-03-31 17:42:00,
2013-03-31 17:52:00,54.0,43.0,29.71,West,279,10.0,17.0,66,0.00,,,0.00,,2013-03-31 17:52:00,
2013-03-31 18:02:00,55.0,43.0,29.70,SW,219,10.0,14.0,65,0.00,,,0.00,,2013-03-31 18:02:00,
2013-03-31 18:12:00,55.0,43.0,29.70,SW,219,10.0,14.0,65,0.00,,,0.00,,2013-03-31 18:12:00,
2013-03-31 18:22:00,55.0,40.0,29.70,WSW,257,9.0,18.0,57,0.00,,,0.00,,2013-03-31 18:22:00,
2013-03-31 18:32:00,56.0,41.0,29.69,WSW,253,10.0,14.0,56,0.00,,,0.00,,2013-03-31 18:32:00,
2013-03-31 18:42:00,56.0,41.0,29.69,WSW,253,10.0,14.0,56,0.00,,,0.00,,2013-03-31 18:42:00,
2013-03-31 18:53:00,56.0,41.0,29.69,WSW,253,10.0,14.0,56,0.00,,,0.00,,2013-03-31 18:53:00,
2013-03-31 19:03:00,55.0,37.0,29.70,West,273,7.0,19.0,51,0.00,,,0.00,,2013-03-31 19:03:00,
2013-03-31 19:12:00,55.0,37.0,29.70,West,273,7.0,19.0,51,0.00,,,0.00,,2013-03-31 19:12:00,
2013-03-31 19:22:00,53.0,37.0,29.70,WSW,257,17.0,24.0,54,0.00,,,0.00,,2013-03-31 19:22:00,
2013-03-31 19:33:00,55.0,39.0,29.70,WNW,294,4.0,14.0,54,0.00,,,0.00,,2013-03-31 19:33:00,
2013-03-31 19:42:00,55.0,39.0,29.70,WNW,294,4.0,14.0,54,0.00,,,0.00,,2013-03-31 19:42:00,
2013-03-31 19:54:00,54.0,38.0,29.70,WNW,290,6.0,15.0,55,0.00,,,0.00,,2013-03-31 19:54:00,
2013-03-31 20:02:00,54.0,38.0,29.71,WSW,250,11.0,17.0,54,0.00,,,0.00,,2013-03-31 20:02:00,
2013-03-31 20:12:00,54.0,38.0,29.71,WSW,250,11.0,17.0,54,0.00,,,0.00,,2013-03-31 20:12:00,
2013-03-31 20:22:00,54.0,38.0,29.71,WSW,250,11.0,17.0,54,0.00,,,0.00,,2013-03-31 20:22:00,
2013-03-31 20:33:00,52.0,36.0,29.72,WNW,292,4.0,16.0,54,0.00,,,0.00,,2013-03-31 20:33:00,
2013-03-31 20:43:00,52.0,36.0,29.72,WNW,292,4.0,16.0,54,0.00,,,0.00,,2013-03-31 20:43:00,
2013-03-31 20:53:00,51.0,37.0,29.72,NW,321,12.0,18.0,58,0.00,,,0.00,,2013-03-31 20:53:00,
2013-03-31 21:02:00,50.0,35.0,29.72,West,268,9.0,16.0,56,0.00,,,0.00,,2013-03-31 21:02:00,
2013-03-31 21:12:00,50.0,35.0,29.72,West,268,9.0,16.0,56,0.00,,,0.00,,2013-03-31 21:12:00,
2013-03-31 21:22:00,50.0,35.0,29.72,West,267,6.0,14.0,57,0.00,,,0.00,,2013-03-31 21:22:00,
2013-03-31 21:33:00,50.0,36.0,29.71,WNW,287,6.0,10.0,59,0.00,,,0.00,,2013-03-31 21:33:00,
2013-03-31 21:43:00,50.0,36.0,29.71,WNW,287,6.0,10.0,59,0.00,,,0.00,,2013-03-31 21:43:00,
2013-03-31 21:54:00,50.0,36.0,29.71,WNW,284,7.0,15.0,58,0.00,,,0.00,,2013-03-31 21:54:00,
2013-03-31 22:03:00,50.0,34.0,29.71,WNW,298,14.0,17.0,54,0.00,,,0.00,,2013-03-31 22:03:00,
2013-03-31 22:13:00,50.0,34.0,29.71,WNW,298,14.0,17.0,54,0.00,,,0.00,,2013-03-31 22:13:00,
2013-03-31 22:23:00,51.0,34.0,29.71,West,259,9.0,15.0,51,0.00,,,0.00,,2013-03-31 22:23:00,
2013-03-31 22:33:00,50.0,35.0,29.72,WNW,288,9.0,14.0,56,0.00,,,0.00,,2013-03-31 22:33:00,
2013-03-31 22:42:00,50.0,35.0,29.72,WNW,288,9.0,14.0,56,0.00,,,0.00,,2013-03-31 22:42:00,
2013-03-31 22:53:00,49.0,36.0,29.73,WNW,288,6.0,18.0,60,0.00,,,0.00,,2013-03-31 22:53:00,
2013-03-31 23:03:00,47.0,34.0,29.74,WNW,290,9.0,21.0,61,0.00,,,0.00,,2013-03-31 23:03:00,
2013-03-31 23:13:00,47.0,34.0,29.74,WNW,290,9.0,21.0,61,0.00,,,0.00,,2013-03-31 23:13:00,
2013-03-31 23:22:00,46.0,33.0,29.75,NW,306,7.0,16.0,61,0.00,,,0.00,,2013-03-31 23:22:00,
2013-03-31 23:32:00,45.0,32.0,29.76,WNW,290,10.0,20.0,60,0.00,,,0.00,,2013-03-31 23:32:00,
2013-03-31 23:42:00,45.0,32.0,29.76,WNW,290,10.0,20.0,60,0.00,,,0.00,,2013-03-31 23:42:00,
2013-03-31 23:53:00,44.0,31.0,29.76,WNW,286,11.0,18.0,60,0.00,,,0.00,,2013-03-31 23:53:00,